Regional Weather Roundup
Issued by NWS

Home | Current Version | Previous Version | Graphics & Text | Print | Product List | Glossary On
Versions: 1 2 3 4 5 6 7 8 9 10 11 12 13 14 15 16 17 18 19 20 21 22 23 24 25 26 27 28 29 30 31 32 33 34 35 36 37 38 39 40 41 42 43 44 45 46 47 48 49 50
098
ASUS43 KLSX 241357
RWRMO

WEATHER SUMMARY FOR MISSOURI
NATIONAL WEATHER SERVICE SPRINGFIELD MO
800 AM CST FRI FEB 24 2017

NOTE: "FAIR" INDICATES FEW OR NO CLOUDS BELOW 12,000 FEET WITH NO
       SIGNIFICANT WEATHER AND/OR OBSTRUCTIONS TO VISIBILITY.
       CURRENT SKY AND/OR WEATHER CONDITIONS ARE NOT AVAILABLE FOR
       CHILLICOTHE AND FARMINGTON.

MOZ001>031-035>038-043-044-053-054-241500-
...NORTHERN AND WESTERN MISSOURI...

CITY           SKY/WX    TMP DP  RH WIND       PRES   REMARKS
KANSAS CTY INT CLOUDY    37  34  89 W10       29.63R WCI  30
LEE`S SUMMIT   CLOUDY    38  35  89 W13G21    29.63R WCI  30
ST JOSEPH      CLOUDY    37  36  96 NW13      29.64R WCI  29
CHILLICOTHE      N/A     42  40  92 NW6       29.58R

$$
MOZ066>068-077>081-088>096-101>105-241500-
...SOUTHWEST MISSOURI...

CITY           SKY/WX    TMP DP  RH WIND       PRES   REMARKS
SPRINGFIELD    CLOUDY    44  39  82 W12G25    29.64R
JOPLIN         CLOUDY    41  37  86 W13G24    29.70R

$$
MOZ032>034-039>042-045>050-055>058-069>072-241500-
...CENTRAL MISSOURI...

CITY           SKY/WX    TMP DP  RH WIND       PRES   REMARKS
COLUMBIA       NOT AVBL
JEFFERSON CITY CLOUDY    48  44  86 W16G25    29.57R
ROLLA          LGT RAIN  51  48  89 W18       29.53R
SEDALIA        CLOUDY    43  38  82 W17G25    29.61R
WARRENSBURG    PTSUNNY   39  34  81 W9G21     29.62R

$$
MOZ051-052-059>065-241500-
...EAST CENTRAL MISSOURI...

CITY           SKY/WX    TMP DP  RH WIND       PRES   REMARKS
ST LOUIS INTL  CLOUDY    63  54  72 S10       29.48R

$$
MOZ072>076-082>087-097>100-106>115-241500-
...SOUTH CENTRAL AND SOUTHEAST MISSOURI...

CITY           SKY/WX    TMP DP  RH WIND       PRES   REMARKS
CAPE GIRARDEAU PTSUNNY   62  54  74 S16G24    29.59R
POPLAR BLUFF   CLOUDY    61  54  77 S12       29.58R
WEST PLAINS    CLOUDY    61  54  77 SW9       29.58R

$$



USA.gov is the U.S. government's official web portal to all federal, state and local government web resources and services.